[[{"header":{"parameterUnit":"m.s-1","parameterCategory":1,"la1":30.2991,"la2":30.254,"lo1":-89.0895,"lo2":-89.0444,"dy":0.0017,"dx":0.0017,"nx":28,"ny":28,"refTime":"2024-08-24T03:00:00:Z","depth":0,"parameterNumber":2,"parameterNumberName":"U-component_of_WINDS"},"data":[0,0,0,0,0,0,0,0,0,0,0,0,0,0,0,0,0,0,0,0,0,0,0,0,0,0,0,0,0,0,0,0,0,0,0,0,0,0,0,0,0,0,0,0,0,0,0,0,0,0,0,0,0,0,0,0,0,0,-4.8193,-4.8192,0,-4.8165,-4.8164,-4.8164,-4.8034,-4.8031,-4.8027,-4.8025,-4.7999,-4.8001,-4.8003,0,0,0,0,0,0,0,0,0,0,0,0,0,-4.8137,-4.8139,-4.8193,-4.8192,-4.8192,-4.8165,-4.8164,-4.8164,-4.8034,-4.803,-4.8027,-4.8023,-4.7998,-4.8001,-4.8003,0,0,0,0,0,0,0,0,0,0,0,0,0,-4.8141,-4.814,-4.8193,-4.8124,-4.8117,-4.8165,-4.8164,-4.8164,-4.8035,-4.803,-4.8026,-4.8021,-4.7997,-4.8001,-4.8004,-4.8116,0,0,-4.8014,-4.8015,0,0,0,0,0,0,0,0,-4.8141,-4.8143,-4.8134,-4.8129,-4.8121,-4.8098,-4.8135,-4.8148,-4.8036,-4.8066,-4.8024,-4.8019,-4.8036,-4.8036,-4.8041,-4.8115,-4.8114,-4.8014,-4.8016,-4.8018,-4.8018,0,0,0,0,0,0,0,-4.8141,-4.8144,-4.8182,-4.8134,-4.8127,-4.8096,-4.8091,-4.8137,-4.8077,-4.8063,-4.8054,-4.8052,-4.8031,-4.8038,-4.8039,-4.8114,-4.8014,-4.8017,-4.8019,-4.802,-4.8281,-4.8286,0,0,0,0,0,0,-4.815,-4.8144,-4.8182,-4.8181,-4.812,-4.81,-4.8095,-4.811,-4.8076,-4.8067,-4.8056,-4.8046,-4.8034,-4.8035,-4.8038,-4.8168,-4.8017,-4.8021,-4.8022,-4.8277,-4.8283,-4.8288,0,0,0,0,0,0,-4.8149,-4.8154,-4.8184,-4.816,-4.8161,-4.8106,-4.8124,-4.8112,-4.8118,-4.8071,-4.806,-4.8073,-4.8031,-4.8033,-4.8098,-4.8166,-4.8022,-4.8025,-4.8271,-4.8278,-4.8285,-4.843,0,0,0,0,0,0,-4.8148,-4.8155,-4.8196,-4.8162,-4.8163,-4.8244,-4.8128,-4.8115,-4.8124,-4.8111,-4.8084,-4.8075,-4.8027,-4.8094,-4.8101,-4.8168,-4.8028,-4.8264,-4.8274,-4.8283,-4.8419,-4.8442,-4.8461,0,0,0,0,0,-4.8147,-4.8238,-4.8199,-4.8204,-4.8213,-4.8248,-4.8248,-4.819,-4.813,-4.8171,-4.8141,-4.8076,-4.8157,-4.8102,-4.8109,-4.8177,-4.826,-4.8271,-4.8282,-4.841,-4.8437,-4.8461,0,0,0,0,0,0,-4.8282,-4.8232,-4.8188,-4.8271,-4.8265,-4.8226,-4.8276,-4.8221,-4.8232,-4.822,-4.8148,-4.8143,-4.822,-4.8204,-4.8144,-4.8285,-4.8198,-4.8211,-4.8292,-4.8318,-4.8339,-4.8341,-4.803,0,0,0,0,0,-4.8322,-4.8353,-4.8308,-4.8386,-4.8385,-4.8332,-4.8344,-4.8301,-4.8291,-4.8288,-4.8262,-4.8257,-4.8281,-4.8299,-4.8318,-4.8417,-4.841,-4.8467,-4.8488,-4.8506,-4.8518,-4.8571,-4.8597,-4.8325,-4.8325,-4.8324,0,0,-4.8404,-4.8381,-4.8405,-4.8413,-4.8402,-4.8438,-4.833,-4.8371,-4.8398,-4.8294,-4.8354,-4.8336,-4.8325,-4.8408,-4.8443,-4.8398,-4.8592,-4.852,-4.8534,-4.8537,-4.8585,-4.8611,-4.8634,-4.8332,-4.8331,-4.833,0,0,-4.8572,-4.8557,-4.862,-4.8613,-4.8598,-4.8563,-4.8578,-4.8548,-4.8532,-4.8591,-4.8515,-4.8545,-4.8588,-4.8584,-4.8588,-4.8757,-4.8698,-4.8765,-4.8875,-4.8927,-4.8949,-4.8967,-4.9029,-4.9052,-4.8778,-4.8778,-4.8778,0,-4.8676,-4.8724,-4.866,-4.8707,-4.8714,-4.8622,-4.8687,-4.8683,-4.8677,-4.8684,-4.8634,-4.8687,-4.8673,-4.8754,-4.8796,-4.8801,-4.8818,-4.8768,-4.8951,-4.8969,-4.8985,-4.9043,-4.9067,-4.8786,-4.8786,-4.8785,-4.8784,0,-4.8854,-4.889,-4.8943,-4.8939,-4.8951,-4.9008,-4.8953,-4.8974,-4.893,-4.89,-4.8963,-4.8943,-4.8958,-4.8974,-4.8931,-4.9051,-4.9023,-4.8963,-4.8873,-4.9021,-4.9074,-4.9096,-4.8798,-4.8795,-4.8793,-4.8791,0,0,-4.9105,-4.9066,-4.9087,-4.9085,-4.9063,-4.909,-4.9143,-4.9157,-4.9177,-4.9177,-4.922,-4.926,-4.9204,-4.9209,-4.9165,-4.9211,-4.9348,-4.9145,-4.9143,-4.9184,-4.9481,-4.9527,-4.9553,-4.9309,-4.9313,-4.9316,-4.9482,0,-4.9266,-4.9353,-4.9298,-4.9394,-4.9427,-4.9341,-4.9388,-4.9381,-4.9355,-4.9381,-4.9353,-4.9382,-4.9306,-4.9308,-4.935,-4.9323,-4.9407,-4.931,-4.9351,-4.9353,-4.9356,-4.9581,-4.9629,-4.9786,-4.9502,-4.9506,-4.9508,0,-4.9465,-4.9473,-4.9573,-4.9547,-4.9558,-4.9601,-4.961,-4.9635,-4.9627,-4.9605,-4.9611,-4.9557,-4.9609,-4.9521,-4.9592,-4.9528,-4.9541,-4.9531,-4.9535,-4.9537,-4.944,-4.959,-4.9835,-4.9859,-4.954,-4.9538,-4.9535,0,-4.964,-4.9676,-4.974,-4.9741,-4.9712,-4.9744,-4.9734,-4.972,-4.9733,-4.9742,-4.975,-4.9765,-4.9774,-4.9788,-4.974,-4.968,-4.9819,-4.9726,-4.9804,-4.9805,-4.9837,-4.9835,-5.0088,-4.9845,-4.9845,-4.9844,-4.9844,0,-4.9826,-4.989,-4.9818,-4.9858,-4.9929,-4.9866,-4.9938,-4.9919,-4.9908,-4.9944,-4.9871,-4.9907,-4.984,-4.987,-4.9833,-4.9899,-4.9903,-4.9889,-4.9878,-4.9895,-4.9898,-4.9904,-4.9892,-4.985,-4.9849,-4.9848,-4.9847,0,-5.0033,-4.9987,-5.0052,-5.0019,-5.0013,-5.0067,-5.0039,-5.0076,-5.0046,-5.0093,-5.01,-5.0054,-5.0085,-5.0038,-5.0064,-5.0039,-5.0131,-5.0103,-5.0134,-5.0126,-5.0207,-5.02,-5.0473,-5.0506,-5.0241,-5.0244,-5.0246,0,-5.0154,-5.0202,-5.0175,-5.0194,-5.0187,-5.0218,-5.0231,-5.0171,-5.0188,-5.0183,-5.0221,-5.0246,-5.0263,-5.0317,-5.0286,-5.0307,-5.028,-5.0374,-5.0282,-5.0299,-5.0283,-5.0281,-5.0286,-5.0393,-5.0396,-5.0399,-5.0401,0,-5.0376,-5.0351,-5.0372,-5.0386,-5.0403,-5.0411,-5.0414,-5.0434,-5.0371,-5.0394,-5.0425,-5.0438,-5.0465,-5.0491,-5.0504,-5.0495,-5.0439,-5.043,-5.0449,-5.0468,-5.0484,-5.0478,-5.0186,-5.0424,-5.0422,-5.042,-5.0419,-5.0418,-5.0544,-5.0584,-5.0571,-5.0597,-5.0593,-5.0598,-5.0631,-5.0606,-5.063,-5.0647,-5.0611,-5.0651,-5.0644,-5.0655,-5.0652,-5.0684,-5.0643,-5.0671,-5.0678,-5.0686,-5.0699,-5.0479,-5.0686,-5.0685,-5.0685,-5.0684,-5.0684,0,-5.0763,-5.0751,-5.0776,-5.0782,-5.0804,-5.0748,-5.0749,-5.0771,-5.0807,-5.0804,-5.0822,-5.0859,-5.0885,-5.0857,-5.0878,-5.091,-5.0885,-5.0917,-5.0915,-5.0914,-5.0734,-5.0715,-5.0937,-5.0937,-5.0937,-5.0937,-5.0937,-5.0937,-5.0879,-5.0943,-5.0918,-5.098,-5.0968,-5.1006,-5.1012,-5.1017,-5.1014,-5.1058,-5.1079,-5.1061,-5.1049,-5.1069,-5.1091,-5.1082,-5.1094,-5.1136,-5.1119,-5.0951,-5.0926,-5.0903,-5.0885,-5.1139,-5.1139,-5.1296,-5.1298,-5.1299]},{"header":{"parameterUnit":"m.s-1","parameterCategory":1,"la1":30.2991,"la2":30.254,"lo1":-89.0895,"lo2":-89.0444,"dy":0.0017,"dx":0.0017,"nx":28,"ny":28,"refTime":"2024-08-24T03:00:00:Z","depth":0,"parameterNumber":3,"parameterNumberName":"V-component_of_WINDS"},"data":[0,0,0,0,0,0,0,0,0,0,0,0,0,0,0,0,0,0,0,0,0,0,0,0,0,0,0,0,0,0,0,0,0,0,0,0,0,0,0,0,0,0,0,0,0,0,0,0,0,0,0,0,0,0,0,0,0,0,0.3409,0.341,0,0.3445,0.3445,0.3446,0.3515,0.3516,0.3518,0.3519,0.3552,0.3552,0.3551,0,0,0,0,0,0,0,0,0,0,0,0,0,0.3399,0.3399,0.3409,0.341,0.341,0.3445,0.3445,0.3446,0.3515,0.3516,0.3518,0.352,0.3552,0.3552,0.3551,0,0,0,0,0,0,0,0,0,0,0,0,0,0.3416,0.3399,0.3409,0.3449,0.3453,0.3445,0.3445,0.3446,0.3514,0.3516,0.3519,0.352,0.3552,0.3552,0.3551,0.3506,0,0,0.3549,0.3549,0,0,0,0,0,0,0,0,0.3415,0.3416,0.3442,0.3446,0.345,0.3478,0.3454,0.3466,0.3514,0.3491,0.3519,0.3521,0.3525,0.3527,0.3529,0.3508,0.3509,0.3549,0.3549,0.3549,0.3548,0,0,0,0,0,0,0,0.3413,0.3415,0.3423,0.3443,0.3448,0.3464,0.3469,0.3456,0.3496,0.3493,0.3498,0.3502,0.3528,0.3529,0.353,0.3509,0.3549,0.3549,0.3548,0.3548,0.3453,0.3451,0,0,0,0,0,0,0.3407,0.3413,0.3422,0.3424,0.3437,0.3463,0.3468,0.3467,0.3496,0.3503,0.35,0.3505,0.353,0.3531,0.3532,0.348,0.3549,0.3548,0.3548,0.3455,0.3452,0.345,0,0,0,0,0,0,0.3406,0.3407,0.3421,0.342,0.3423,0.3461,0.3459,0.3466,0.3468,0.3502,0.3509,0.3494,0.3531,0.3533,0.3512,0.3482,0.3548,0.3547,0.3457,0.3454,0.3451,0.3377,0,0,0,0,0,0,0.3406,0.3406,0.339,0.3419,0.3423,0.3401,0.3457,0.3466,0.3467,0.3474,0.3498,0.3504,0.3533,0.3513,0.3511,0.3483,0.3547,0.346,0.3456,0.3452,0.3382,0.3372,0.3363,0,0,0,0,0,0.3405,0.3367,0.3389,0.3389,0.3403,0.3399,0.3401,0.3436,0.3465,0.3448,0.347,0.3503,0.3487,0.351,0.3509,0.348,0.3462,0.3457,0.3452,0.3387,0.3374,0.3363,0,0,0,0,0,0,0.3331,0.3371,0.3396,0.3366,0.3379,0.3411,0.3391,0.3421,0.3424,0.343,0.3473,0.3478,0.3451,0.3464,0.3489,0.3438,0.348,0.3474,0.343,0.3418,0.3408,0.3405,0.3546,0,0,0,0,0,0.3312,0.3306,0.3341,0.3311,0.3317,0.3352,0.3352,0.3378,0.3392,0.3397,0.3417,0.3429,0.3426,0.3423,0.3423,0.3386,0.3391,0.3365,0.3355,0.3347,0.3341,0.3322,0.331,0.3434,0.3434,0.3434,0,0,0.3271,0.3292,0.3285,0.3297,0.331,0.3301,0.3356,0.3345,0.3339,0.3395,0.3377,0.3392,0.3408,0.3379,0.3367,0.3388,0.3309,0.3341,0.3334,0.3333,0.3316,0.3304,0.3293,0.3431,0.3431,0.3432,0,0,0.3192,0.3208,0.3185,0.3197,0.3216,0.3241,0.3235,0.3263,0.3275,0.3258,0.33,0.3294,0.3288,0.3298,0.3302,0.3228,0.3259,0.3227,0.3174,0.3155,0.3145,0.3137,0.3109,0.3099,0.3222,0.3221,0.3221,0,0.3138,0.3128,0.3169,0.3155,0.3159,0.3211,0.3188,0.3197,0.3215,0.3215,0.324,0.3235,0.325,0.3223,0.3205,0.3207,0.3201,0.3223,0.3144,0.3136,0.3128,0.3102,0.3092,0.3217,0.3218,0.3218,0.3219,0,0.306,0.3053,0.3032,0.3049,0.305,0.3032,0.3069,0.3066,0.3092,0.3114,0.3096,0.3115,0.3119,0.3116,0.3141,0.3093,0.3105,0.3136,0.3179,0.3112,0.3088,0.3078,0.3211,0.3213,0.3214,0.3215,0,0,0.2933,0.2974,0.2965,0.2974,0.3,0.2994,0.2978,0.2984,0.298,0.2991,0.2977,0.2973,0.3002,0.3006,0.3034,0.3017,0.2956,0.305,0.3051,0.303,0.2902,0.2877,0.2865,0.2978,0.2976,0.2975,0.29,0,0.2858,0.2833,0.287,0.2837,0.283,0.2881,0.2867,0.2881,0.2901,0.2898,0.292,0.2915,0.2955,0.2958,0.2944,0.2966,0.293,0.2972,0.2964,0.2963,0.2956,0.2853,0.2826,0.2755,0.2892,0.289,0.2889,0,0.2766,0.2774,0.274,0.2768,0.2767,0.2754,0.2762,0.2759,0.2776,0.2792,0.2798,0.2831,0.2816,0.2859,0.2839,0.2867,0.2866,0.2877,0.2875,0.2873,0.292,0.2846,0.2733,0.2722,0.2875,0.2876,0.2877,0,0.2674,0.2676,0.2656,0.2662,0.2695,0.2685,0.2698,0.2717,0.2718,0.2726,0.2727,0.2732,0.2734,0.2737,0.277,0.2799,0.2745,0.2792,0.2757,0.2756,0.2741,0.2741,0.2624,0.2744,0.2744,0.2744,0.2745,0,0.2585,0.2561,0.2615,0.2602,0.2578,0.2622,0.2596,0.2614,0.2631,0.2622,0.2667,0.2658,0.2704,0.2699,0.2725,0.2704,0.2705,0.2716,0.2723,0.2711,0.2709,0.2709,0.2714,0.2742,0.2742,0.2743,0.2743,0,0.2476,0.2512,0.2493,0.2527,0.2536,0.2516,0.2544,0.2534,0.2558,0.2546,0.2546,0.2584,0.2581,0.2615,0.2618,0.2636,0.2602,0.2619,0.2596,0.26,0.2563,0.2565,0.244,0.2425,0.2556,0.2555,0.2554,0,0.2416,0.2399,0.2432,0.243,0.2442,0.2438,0.244,0.2482,0.2482,0.2501,0.2488,0.2489,0.2492,0.2485,0.2511,0.2514,0.253,0.2486,0.253,0.2519,0.2527,0.2527,0.2525,0.2475,0.2474,0.2473,0.2471,0,0.2304,0.2323,0.2325,0.2332,0.2334,0.2342,0.2352,0.2348,0.2394,0.2392,0.239,0.2393,0.2397,0.2397,0.2405,0.2418,0.2451,0.2458,0.245,0.2436,0.2423,0.2428,0.2568,0.246,0.2461,0.2462,0.2462,0.2463,0.2217,0.2204,0.2226,0.2226,0.2239,0.2249,0.224,0.2264,0.2264,0.2272,0.2297,0.2291,0.2309,0.2324,0.2334,0.2329,0.235,0.2339,0.2335,0.2331,0.2324,0.2426,0.2331,0.2331,0.2332,0.2332,0.2332,0,0.2106,0.2123,0.2123,0.2137,0.2137,0.2172,0.2186,0.2183,0.2177,0.2192,0.2195,0.2193,0.2193,0.2221,0.2225,0.2216,0.2231,0.2215,0.2215,0.2217,0.2305,0.2311,0.2202,0.2202,0.2202,0.2202,0.2202,0.2202,0.2048,0.2028,0.205,0.2038,0.2055,0.205,0.2055,0.2064,0.2076,0.2072,0.2073,0.2092,0.2112,0.2118,0.212,0.2128,0.2126,0.2104,0.2117,0.2198,0.2211,0.2223,0.2228,0.2104,0.2104,0.203,0.2029,0.2029]}]]